This demonstration page uses our WeatherBlox Daily Observations layout. Learn more.

Hourly Observations for February 1, 2019

Temp ( °F °C ) Dew Point ( °F °C ) Humidity (%) Winds ( mph kmh ) Pressure ( in mb ) Visibility ( mi km ) Precip ( " mm )
12:15 am 00:15 Clear 24 -4.7 19 -7.3 82 82 Calm 30.12 1020 10 16.09344 0 0
12:35 am 00:35 Clear 23 -5 19 -7.3 84 84 NE 3 6 30.12 1020 10 16.09344 0 0
12:55 am 00:55 Clear 23 -5 19 -7.3 84 84 Calm 30.12 1020 10 16.09344 0 0
1:15 am 01:15 Clear 23 -5.2 19 -7.5 84 84 E 3 6 30.18 1022 10 16.09344 0 0
1:35 am 01:35 Clear 22 -5.4 18 -7.7 84 84 Calm 30.12 1020 10 16.09344 0 0
1:55 am 01:55 Clear 22 -5.6 18 -7.7 85 85 Calm 30.18 1022 10 16.09344 0 0
2:15 am 02:15 Clear 21 -5.9 18 -8 85 85 Calm 30.18 1022 10 16.09344 0 0
2:35 am 02:35 Clear 22 -5.5 18 -7.6 85 85 Calm 30.18 1022 10 16.09344 0 0
2:55 am 02:55 Clear 22 -5.6 18 -7.7 85 85 Calm 30.18 1022 10 16.09344 0 0
3:15 am 03:15 Clear 21 -6 17 -8.1 85 85 Calm 30.18 1022 10 16.09344 0 0
3:35 am 03:35 Clear 21 -6.2 17 -8.5 84 84 Calm 30.18 1022 10 16.09344 0 0
3:55 am 03:55 Clear 21 -6.2 17 -8.4 85 85 NW 3 6 30.18 1022 10 16.09344 0 0
4:15 am 04:15 Clear 21 -6.2 17 -8.4 85 85 WSW 6 9 30.15 1021 10 16.09344 0 0
4:35 am 04:35 Clear 25 -4.1 19 -7.4 78 78 WSW 6 9 30.12 1020 10 16.09344 0 0
4:55 am 04:55 Clear 26 -3.6 19 -7.4 75 75 Calm 30.12 1020 10 16.09344 0 0
5:15 am 05:15 Clear 27 -2.6 19 -7 72 72 Calm 30.12 1020 10 16.09344 0 0
5:35 am 05:35 Clear 26 -3.2 17 -8.2 69 69 Calm 30.15 1021 10 16.09344 0 0
5:55 am 05:55 Clear 21 -6 17 -8.6 82 82 Calm 30.15 1021 10 16.09344 0 0
6:15 am 06:15 Clear 24 -4.2 19 -7.5 78 78 SW 3 6 30.12 1020 10 16.09344 0 0
6:35 am 06:35 Clear 22 -5.5 17 -8.3 81 81 WSW 5 7 30.15 1021 10 16.09344 0 0
6:55 am 06:55 Clear 22 -5.5 17 -8.5 80 80 WSW 3 6 30.15 1021 10 16.09344 0 0
7:15 am 07:15 Clear 22 -5.3 18 -8 82 82 SW 5 7 30.12 1020 10 16.09344 0 0
7:35 am 07:35 Clear 24 -4.6 18 -8 77 77 Calm 30.12 1020 10 16.09344 0 0
7:55 am 07:55 Sunny 22 -5.4 17 -8.3 80 80 Calm 30.18 1022 10 16.09344 0 0
8:15 am 08:15 Sunny 22 -5.4 17 -8.1 82 82 NE 3 6 30.18 1022 10 16.09344 0 0
8:35 am 08:35 Sunny 23 -4.8 19 -7.1 84 84 Calm 30.15 1021 10 16.09344 0 0
8:55 am 08:55 Sunny 28 -2.4 23 -5 83 83 Calm 30.15 1021 10 16.09344 0 0
9:15 am 09:15 Sunny 32 0 27 -3 80 80 Calm 30.12 1020 10 16.09344 0 0
9:35 am 09:35 Sunny 37 2.9 26 -3.1 65 65 SW 3 6 30.09 1019 10 16.09344 0 0
9:55 am 09:55 Sunny 41 5.2 26 -3.2 55 55 SW 6 9 30.06 1018 10 16.09344 0 0
10:15 am 10:15 Sunny 44 6.7 26 -3.3 49 49 W 6 9 30.09 1019 10 16.09344 0 0
10:35 am 10:35 Sunny 47 8.3 24 -4.3 41 41 WSW 7 11 30.06 1018 10 16.09344 0 0
10:55 am 10:55 Sunny 49 9.7 24 -4.7 36 36 WSW 9 15 30.06 1018 10 16.09344 0 0
11:15 am 11:15 Sunny 50 10.1 22 -5.6 33 33 WSW 10 17 30.06 1018 10 16.09344 0 0
11:35 am 11:35 Sunny 52 11.2 22 -5.7 30 30 WSW 13 20 30.03 1017 10 16.09344 0 0
11:55 am 11:55 Sunny 54 12 22 -5.6 29 29 WSW 15 24 30.03 1017 10 16.09344 0 0
12:15 pm 12:15 Sunny 55 12.5 22 -5.5 28 28 SW 13 20 30 1016 10 16.09344 0 0
12:35 pm 12:35 Sunny 55 13 21 -6.1 26 26 SW 16 26 30 1016 10 16.09344 0 0
12:55 pm 12:55 Sunny 57 13.7 21 -6 25 25 WSW 15 24 29.97 1015 10 16.09344 0 0
1:15 pm 13:15 Sunny 59 14.8 19 -7.3 21 21 SW 18 30 29.94 1014 10 16.09344 0 0
1:35 pm 13:35 Sunny 59 15.1 18 -7.7 20 20 SW 22 35 29.94 1014 10 16.09344 0 0
1:55 pm 13:55 Sunny 59 14.8 20 -6.9 22 22 SW 17 28 29.94 1014 10 16.09344 0 0
2:15 pm 14:15 Sunny 58 14.6 21 -6.1 24 24 SSW 20 31 29.94 1014 10 16.09344 0 0
2:35 pm 14:35 Sunny 58 14.5 24 -4.7 26 26 SSW 14 22 29.94 1014 10 16.09344 0 0
2:55 pm 14:55 Sunny 58 14.7 24 -4.3 27 27 SSW 14 22 29.91 1013 10 16.09344 0 0
3:15 pm 15:15 Sunny 60 15.4 24 -4.4 25 25 SSW 15 24 29.91 1013 10 16.09344 0 0
3:35 pm 15:35 Sunny 60 15.6 24 -4.4 25 25 SSW 15 24 29.91 1013 10 16.09344 0 0
3:55 pm 15:55 Sunny 61 16 23 -4.8 24 24 SSW 13 20 29.88 1012 10 16.09344 0 0
4:15 pm 16:15 Sunny 60 15.8 20 -6.5 21 21 SSW 18 30 29.91 1013 10 16.09344 0 0
4:35 pm 16:35 Sunny 59 15.2 23 -5.1 24 24 SSW 13 20 29.91 1013 10 16.09344 0 0
4:55 pm 16:55 Sunny 58 14.5 21 -6.1 24 24 SSW 13 20 29.91 1013 10 16.09344 0 0
5:15 pm 17:15 Sunny 56 13.5 22 -5.7 26 26 SSW 12 19 29.91 1013 10 16.09344 0 0
5:35 pm 17:35 Sunny 54 12 23 -5.1 30 30 S 12 19 29.94 1014 10 16.09344 0 0
5:55 pm 17:55 Sunny 51 10.6 22 -5.4 32 32 SSW 14 22 29.94 1014 10 16.09344 0 0
6:15 pm 18:15 Clear 48 8.9 22 -5.3 37 37 SSW 13 20 29.97 1015 10 16.09344 0 0
6:35 pm 18:35 Clear 47 8.6 23 -5 38 38 S 13 20 29.97 1015 10 16.09344 0 0
6:55 pm 18:55 Clear 48 9.1 23 -4.8 37 37 S 15 24 29.97 1015 10 16.09344 0 0
7:15 pm 19:15 Clear 48 9.1 24 -4.2 39 39 SSW 20 31 29.97 1015 10 16.09344 0 0
7:35 pm 19:35 Clear 48 9 24 -4.3 39 39 SSW 18 30 29.97 1015 10 16.09344 0 0
7:55 pm 19:55 Clear 47 8.6 25 -4 41 41 SSW 18 30 29.97 1015 10 16.09344 0 0
8:15 pm 20:15 Clear 47 8.5 25 -4 41 41 SSW 18 30 29.97 1015 10 16.09344 0 0
8:35 pm 20:35 Clear 47 8.3 25 -3.7 43 43 SSW 18 30 29.97 1015 10 16.09344 0 0
8:55 pm 20:55 Clear 47 8.6 26 -3.6 42 42 SSW 18 30 29.97 1015 10 16.09344 0 0
9:15 pm 21:15 Clear 47 8.4 26 -3.5 43 43 SSW 16 26 29.97 1015 10 16.09344 0 0
9:35 pm 21:35 Clear 46 7.9 26 -3.5 45 45 SSW 17 28 29.97 1015 10 16.09344 0 0
9:55 pm 21:55 Clear 46 7.8 26 -3.5 45 45 SSW 20 31 29.97 1015 10 16.09344 0 0
10:15 pm 22:15 Clear 46 7.5 26 -3.4 46 46 SSW 18 30 29.97 1015 10 16.09344 0 0
10:35 pm 22:35 Clear 45 7.3 26 -3.3 47 47 SSW 20 31 29.97 1015 10 16.09344 0 0
10:55 pm 22:55 Clear 44 6.6 26 -3.2 50 50 SSW 17 28 29.97 1015 10 16.09344 0 0
11:15 pm 23:15 Clear 43 6 26 -3.2 52 52 SSW 16 26 30 1016 10 16.09344 0 0
11:35 pm 23:35 Clear 42 5.5 26 -3.1 54 54 SSW 16 26 30 1016 10 16.09344 0 0
11:55 pm 23:55 Clear 41 4.9 27 -3 57 57 SSW 13 20 30 1016 10 16.09344 0 0

Powered by AerisWeather